This is the latest recevied weather packets stored in our database for station/object KK7MLS-13. If no packets are shown the sender has not sent any weather packets the latest 1 day(s).
| Time | Temp. | Humidity | Pressure | Rain* | Wind** | Luminosity | Snow |
|---|---|---|---|---|---|---|---|
| 1778001519 | 13.89° C | 80% | 1016.9 hPa | 0 mm | 0 m/s | 116 W/m² | - |
| 1778001216 | 13.89° C | 80% | 1016.9 hPa | 0 mm | 0 m/s | 85 W/m² | - |
| 1778000912 | 13.33° C | 81% | 1016.8 hPa | 0 mm | 0 m/s | 98 W/m² | - |
| 1778000609 | 13.89° C | 80% | 1016.9 hPa | 0 mm | 0 m/s | 85 W/m² | - |
| 1778000305 | 13.33° C | 82% | 1016.8 hPa | 0 mm | 0 m/s | 90 W/m² | - |
| 1778000001 | 13.33° C | 81% | 1016.8 hPa | 0 mm | 0 m/s | 83 W/m² | - |
| 1777999696 | 13.33° C | 81% | 1016.7 hPa | 0 mm | 0 m/s | 72 W/m² | - |
| 1777999394 | 13.33° C | 82% | 1016.7 hPa | 0 mm | 0 m/s | 71 W/m² | - |
| 1777999092 | 13.33° C | 82% | 1016.6 hPa | 0 mm | 0 m/s | 70 W/m² | - |
| 1777998790 | 13.33° C | 82% | 1016.6 hPa | 0 mm | 0 m/s | 67 W/m² | - |
| 1777998488 | 13.33° C | 81% | 1016.8 hPa | 0 mm | 0.45 m/s, 288° | 63 W/m² | - |
| 1777998184 | 13.33° C | 81% | 1016.8 hPa | 0 mm | 0.45 m/s, 285° | 69 W/m² | - |
| 1777997881 | 13.33° C | 81% | 1016.6 hPa | 0 mm | 0 m/s | 74 W/m² | - |
| 1777997578 | 13.33° C | 80% | 1016.5 hPa | 0 mm | 0 m/s | 77 W/m² | - |
| 1777997276 | 13.33° C | 80% | 1016.6 hPa | 0 mm | 0 m/s | 90 W/m² | - |
| 1777996973 | 13.33° C | 80% | 1016.4 hPa | 0 mm | 0 m/s | 62 W/m² | - |
| 1777996670 | 13.33° C | 80% | 1016.6 hPa | 0 mm | 0 m/s | 93 W/m² | - |
| 1777996366 | 13.33° C | 80% | 1016.6 hPa | 0 mm | 0 m/s | 75 W/m² | - |
| 1777996062 | 13.33° C | 81% | 1016.5 hPa | 0 mm | 0.45 m/s, 286° | 86 W/m² | - |
| 1777995759 | 13.33° C | 81% | 1016.4 hPa | 0 mm | 0 m/s | 85 W/m² | - |
| 1777995455 | 13.33° C | 81% | 1016.5 hPa | 0 mm | 0 m/s | 79 W/m² | - |
| 1777995152 | 13.33° C | 82% | 1016.3 hPa | 0 mm | 0 m/s | 70 W/m² | - |
| 1777994850 | 13.33° C | 81% | 1016.5 hPa | 0 mm | 0 m/s | 74 W/m² | - |
| 1777994546 | 12.78° C | 82% | 1016.5 hPa | 0 mm | 0 m/s | 72 W/m² | - |
| 1777994246 | 12.78° C | 83% | 1016.5 hPa | 0 mm | 0 m/s | 76 W/m² | - |
* Rain latest hour (hover to see other rain measurements)
** Current wind speed in m/s (hover to see current wind gust speed)